Starlink 11141

operational
NORAD ID: 60066 Int'l Des: 2024-113 Owner: SPXS Country: US Constellation: starlink
LEOCIRCULAR

关于 Starlink 11141

正在加载描述...

实时位置

正在加载3D地球...

即将过境

高度历史

Altitude vs Time

uPlot chart will show altitude changes over time

两行轨道根数

1 60066U 24113H 26034.17345947 -.00009894 00000-0 -76929-4 0 9993
2 60066 53.1584 1.0976 0001438 99.4406 260.6774 15.69699113 94147
Epoch: Feb 3, 2026 • Age: 10 hours

当前状态

高度 369.3 km
速度 7.69 km/s
星下点 -29.88°S, 143.26°W
发射日期 Jun 19, 2024
运行时间 1.6 years
类型 internet

技术详情

分类 Payload
质量 960.00 kg
干质量 910.00 kg
总质量 960.00 kg
长度 0.30 m
直径 4.10 m
跨度 29.00 m
形状 Box + pan
制造商 SPXS
平台类型 Starlink V2MD
阶段状态 In Orbit
所有者/国家 SPXS/US

大型星座

Loading constellations...